Tracking 30701 objects as of 14-Jun-2025
HD Live streaming from Space Station
objects crossing your sky now

NOAA 17 DEB

Track NOAA 17 DEB now!
10-day predictions


NORAD ID: 48175
Int'l Code: 2002-032R
Perigee: 722.9 km
Apogee: 750.9 km
Inclination: 98.7 °
Period: 99.4 minutes
Semi major axis: 7107 km
RCS: Unknown
Launch date: June 24, 2002
Source: United States (US)
Launch site: AIR FORCE WESTERN TEST RANGE (AFWTR)

Note: This is SATELLITE DEBRIS
Your satellite tracking list
Your tracking list is empty




NASA's NSSDC Master Catalog

Two Line Element Set (TLE):
1 48175U 02032Q   25164.83524288  .00015801  00000-0  41825-2 0  9997
2 48175  98.7263 127.8752 0019755 324.9138  35.0752 14.48740626221336
Source of the keplerian elements: AFSPC